Location: Carrigahorig
(53.0625°N, 8.1439°W)
Time: 23:38:21
(UTC+00:00)

Cosmos 2221 - Pass Details

Date: 15 May 2026
Orbit: 569 x 587 km, 82.5° (Epoch: 11 June)

Event Time Altitude Azimuth Distance (km) Brightness Sun altitude
Exits shadow 23:39:45 36° 166° (SSE) 924 2.9 -17.1°
Maximum altitude 23:41:17 65° 97° (E) 641 2.5 -17.1°
Drops below altitude 10° 23:45:28 10° 16° (NNE) 1,911 6.0 -17.3°
Sets 23:47:42 0° 14° (NNE) 2,819 7.2 -17.3°
